Two Harbors, MN

5:35 PM CDT on July 26, 2016 (GMT -0500)
Helgeson

Weather History for KTWM - June, 2012

Change the Weather History Date:

Thursday, June 7, 2012

  Actual Average Record
Temperature  
Mean Temperature 62 °F -  
Max Temperature 77 °F 68 °F 86 °F (1976)
Min Temperature 46 °F 43 °F 31 °F (1971)
Degree Days  
Heating Degree Days 4    
Growing Degree Days 12 (Base 50)    
Moisture  
Dew Point 52 °F    
Average Humidity 72    
Maximum Humidity 88    
Minimum Humidity 53    
Precipitation  
Precipitation 0.00 in - - ()
Sea Level Pressure  
Sea Level Pressure 30.05 in    
Wind  
Wind Speed 2 mph (SSE)    
Max Wind Speed 7 mph    
Max Gust Speed -    
Visibility 10 miles    
Events      
Averages and records for this station are not official NWS values.
T = Trace of Precipitation, MM = Missing Value Source: NWS Daily Summary

Daily Weather History Graph

Daily Weather History Graph

Search for Another Location

Airport or City:

Trip Planner

Search our weather history database for the weather conditions in past years. The results will help you decide how hot, cold, wet, or windy it might be!

Date:

Astronomy

Jun. 07, 2012 Rise Set
Actual Time 5:12 AM CDT 8:59 PM CDT
Civil Twilight 4:33 AM CDT 9:39 PM CDT
Nautical Twilight 3:39 AM CDT 10:32 PM CDT
Astronomical Twilight 2:23 AM CDT 11:50 PM CDT
Moon 11:38 PM CDT (6/7) 8:52 AM CDT (6/7)
Length of Visible Light 17h 06m
Length of Day
15h 47m
Waning Gibbous, 86% of the Moon is Illuminated
Jun 7
Waning Gibbous
Jun 11
Last Quarter
Jun 19
New
Jun 26
First Quarter
Jul 3
Full

Hourly Weather History & Observations

Time (CDT) Temp. Dew Point Humidity Pressure Visibility Wind Dir Wind Speed Gust Speed Precip Events Conditions
12:13 AM 51.8 °F 46.4 °F 82% 30.09 in 10.0 mi North 4.6 mph - N/A   Scattered Clouds
12:32 AM 51.8 °F 46.4 °F 82% 30.10 in 10.0 mi Calm Calm - N/A   Clear
12:53 AM 51.8 °F 46.4 °F 82% 30.10 in 10.0 mi North 3.5 mph - N/A   Clear
1:13 AM 51.8 °F 46.4 °F 82% 30.09 in 10.0 mi North 4.6 mph - N/A   Clear
1:32 AM 51.8 °F 46.4 °F 82% 30.10 in 10.0 mi Calm Calm - N/A   Clear
1:53 AM 51.8 °F 46.4 °F 82% 30.10 in 10.0 mi North 4.6 mph - N/A   Clear
2:13 AM 51.8 °F 46.4 °F 82% 30.09 in 10.0 mi NNE 4.6 mph - N/A   Clear
2:32 AM 48.2 °F 44.6 °F 87% 30.10 in 7.0 mi NNW 3.5 mph - N/A   Clear
2:53 AM 48.2 °F 44.6 °F 87% 30.10 in 10.0 mi Calm Calm - N/A   Clear
3:13 AM 48.2 °F 44.6 °F 87% 30.09 in 10.0 mi Calm Calm - N/A   Clear
3:32 AM 46.4 °F 42.8 °F 87% 30.10 in 10.0 mi Calm Calm - N/A   Clear
3:53 AM 46.4 °F 42.8 °F 87% 30.09 in 7.0 mi Calm Calm - N/A   Clear
4:13 AM 46.4 °F 41.0 °F 81% 30.09 in 5.0 mi Calm Calm - N/A   Haze
4:32 AM 46.4 °F 42.8 °F 87% 30.10 in 7.0 mi Calm Calm - N/A   Clear
4:53 AM 46.4 °F 41.0 °F 81% 30.09 in 7.0 mi Calm Calm - N/A   Clear
5:13 AM 46.4 °F 41.0 °F 81% 30.10 in 5.0 mi Calm Calm - N/A   Haze
5:32 AM 46.4 °F 41.0 °F 81% 30.10 in 5.0 mi Calm Calm - N/A   Haze
5:53 AM 48.2 °F 42.8 °F 82% 30.10 in 10.0 mi Calm Calm - N/A   Mostly Cloudy
6:13 AM 50.0 °F 44.6 °F 82% 30.10 in 10.0 mi Calm Calm - N/A   Mostly Cloudy
6:32 AM 50.0 °F 44.6 °F 82% 30.10 in 7.0 mi Calm Calm - N/A   Scattered Clouds
6:53 AM 55.4 °F 50.0 °F 82% 30.10 in 10.0 mi Calm Calm - N/A   Scattered Clouds
7:13 AM 57.2 °F 51.8 °F 82% 30.10 in 10.0 mi Calm Calm - N/A   Mostly Cloudy
7:32 AM 57.2 °F 51.8 °F 82% 30.09 in 10.0 mi Calm Calm - N/A   Overcast
7:53 AM 59.0 °F 51.8 °F 77% 30.10 in 10.0 mi Calm Calm - N/A   Overcast
8:13 AM 60.8 °F 53.6 °F 77% 30.09 in 10.0 mi Calm Calm - N/A   Overcast
8:53 AM 64.4 °F 55.4 °F 73% 30.09 in 10.0 mi Calm Calm - N/A   Clear
9:13 AM 64.4 °F 55.4 °F 73% 30.08 in 10.0 mi ENE 3.5 mph - N/A   Clear
9:32 AM 66.2 °F 55.4 °F 68% 30.08 in 10.0 mi Calm Calm - N/A   Clear
9:53 AM 68.0 °F 55.4 °F 64% 30.08 in 10.0 mi Calm Calm - N/A   Clear
10:13 AM 68.0 °F 55.4 °F 64% 30.08 in 10.0 mi SE 4.6 mph - N/A   Clear
10:32 AM 68.0 °F 55.4 °F 64% 30.08 in 10.0 mi Calm Calm - N/A   Clear
10:52 AM 68.0 °F 55.4 °F 64% 30.08 in 10.0 mi SSE 4.6 mph - N/A   Scattered Clouds
11:13 AM 68.0 °F 55.4 °F 64% 30.08 in 10.0 mi SSE 6.9 mph - N/A   Clear
11:32 AM 69.8 °F 55.4 °F 60% 30.07 in 10.0 mi ESE 6.9 mph - N/A   Clear
11:53 AM 69.8 °F 55.4 °F 60% 30.07 in 10.0 mi South 3.5 mph - N/A   Scattered Clouds
12:12 PM 71.6 °F 57.2 °F 60% 30.07 in 10.0 mi South 4.6 mph - N/A   Scattered Clouds
12:33 PM 71.6 °F 55.4 °F 57% 30.07 in 10.0 mi Calm Calm - N/A   Scattered Clouds
12:53 PM 69.8 °F 55.4 °F 60% 30.06 in 10.0 mi SSW 5.8 mph - N/A   Scattered Clouds
1:12 PM 66.2 °F 55.4 °F 68% 30.06 in 10.0 mi SSW 3.5 mph - N/A   Mostly Cloudy
1:33 PM 66.2 °F 57.2 °F 73% 30.05 in 10.0 mi Calm Calm - N/A   Overcast
1:53 PM 66.2 °F 55.4 °F 68% 30.05 in 10.0 mi Calm Calm - N/A   Overcast
2:12 PM 68.0 °F 55.4 °F 64% 30.05 in 10.0 mi SSW 3.5 mph - N/A   Mostly Cloudy
2:33 PM 69.8 °F 57.2 °F 64% 30.04 in 10.0 mi Calm Calm - N/A   Mostly Cloudy
2:53 PM 69.8 °F 57.2 °F 64% 30.03 in 10.0 mi Calm Calm - N/A   Mostly Cloudy
3:12 PM 71.6 °F 57.2 °F 60% 30.03 in 10.0 mi Calm Calm - N/A   Scattered Clouds
3:33 PM 73.4 °F 59.0 °F 61% 30.02 in 10.0 mi SW 3.5 mph - N/A   Scattered Clouds
3:53 PM 75.2 °F 57.2 °F 53% 30.01 in 10.0 mi SW 5.8 mph - N/A   Scattered Clouds
4:12 PM 77.0 °F 59.0 °F 54% 30.00 in 10.0 mi South 6.9 mph - N/A   Clear
4:33 PM 75.2 °F 59.0 °F 57% 30.00 in 10.0 mi South 5.8 mph - N/A   Clear
4:52 PM 75.2 °F 59.0 °F 57% 29.99 in 10.0 mi SSE 4.6 mph - N/A   Clear
5:13 PM 75.2 °F 57.2 °F 53% 29.99 in 10.0 mi South 5.8 mph - N/A   Clear
5:33 PM 75.2 °F 57.2 °F 53% 29.99 in 10.0 mi South 5.8 mph - N/A   Clear
5:52 PM 75.2 °F 57.2 °F 53% 29.99 in 10.0 mi South 5.8 mph - N/A   Clear
6:13 PM 73.4 °F 57.2 °F 57% 29.98 in 10.0 mi SE 6.9 mph - N/A   Clear
6:33 PM 69.8 °F 55.4 °F 60% 29.98 in 10.0 mi Calm Calm - N/A   Clear
6:52 PM 69.8 °F 55.4 °F 60% 29.98 in 10.0 mi East 3.5 mph - N/A   Clear
7:13 PM 68.0 °F 55.4 °F 64% 29.97 in 10.0 mi East 3.5 mph - N/A   Clear
7:33 PM 66.2 °F 55.4 °F 68% 29.97 in 10.0 mi Calm Calm - N/A   Clear
7:52 PM 66.2 °F 55.4 °F 68% 29.97 in 10.0 mi Calm Calm - N/A   Clear
8:13 PM 64.4 °F 55.4 °F 73% 29.97 in 10.0 mi Calm Calm - N/A   Clear
8:33 PM 62.6 °F 55.4 °F 77% 29.97 in 10.0 mi Calm Calm - N/A   Clear
8:52 PM 62.6 °F 55.4 °F 77% 29.96 in 10.0 mi Calm Calm - N/A   Clear
9:13 PM 60.8 °F 53.6 °F 77% 29.96 in 10.0 mi Calm Calm - N/A   Clear
9:33 PM 62.6 °F 53.6 °F 72% 29.97 in 10.0 mi Calm Calm - N/A   Clear
9:53 PM 59.0 °F 53.6 °F 82% 29.97 in 7.0 mi Calm Calm - N/A   Clear
10:12 PM 57.2 °F 53.6 °F 88% 29.97 in 10.0 mi Calm Calm - N/A   Clear
10:33 PM 59.0 °F 53.6 °F 82% 29.97 in 10.0 mi NNW 4.6 mph - N/A   Clear
10:52 PM 57.2 °F 53.6 °F 88% 29.97 in 10.0 mi Calm Calm - N/A   Scattered Clouds
11:33 PM 57.2 °F 51.8 °F 82% 29.97 in 5.0 mi Calm Calm - N/A   Haze
11:52 PM 55.4 °F 51.8 °F 88% 29.97 in 10.0 mi Calm Calm - N/A   Clear